Location: Clanezzo
(45.7500°N, 9.6000°E)
Time: 00:09:45
(UTC+00:00)

EO 1 Del DPAF - Pass Details

Date: 12 May 2021
Orbit: 505 x 510 km, 98.0° (Epoch: 23 June)

Event Time Altitude Azimuth Distance (km) Brightness Sun altitude
Rises 23:48:36 0° 12° (NNE) 2,629 8.2 -25.5°
Reaches altitude 10° 23:50:42 10° 12° (NNE) 1,737 6.9 -25.4°
Enters shadow 23:53:33 50° 9° (N) 654 4.0 -25.4°
